This is the latest recevied weather packets stored in our database for station/object WX4ET. If no packets are shown the sender has not sent any weather packets the latest 10 day(s).
| Time | Temp. | Humidity | Pressure | Rain* | Wind** | Luminosity | Snow |
|---|---|---|---|---|---|---|---|
| 1776986198 | 27.22° C | 40% | 1009.1 hPa | 0 mm | - | 40 W/m² | - |
| 1776985895 | 26.67° C | 42% | 1009.2 hPa | 0 mm | - | 47 W/m² | - |
| 1776985593 | 27.22° C | 39% | 1009.1 hPa | 0 mm | - | 69 W/m² | - |
| 1776985288 | 27.22° C | 44% | 1009.2 hPa | 0 mm | - | 81 W/m² | - |
| 1776984984 | 27.22° C | 40% | 1009.2 hPa | 0 mm | - | 95 W/m² | - |
| 1776984680 | 27.78° C | 38% | 1009.2 hPa | 0 mm | - | 107 W/m² | - |
| 1776984376 | 27.78° C | 37% | 1009 hPa | 0 mm | - | 122 W/m² | - |
| 1776984072 | 27.78° C | 39% | 1009.4 hPa | 0 mm | - | 133 W/m² | - |
| 1776983767 | 27.78° C | 40% | 1009 hPa | 0 mm | - | 154 W/m² | - |
| 1776983463 | 27.78° C | 38% | 1009.1 hPa | 0 mm | - | 167 W/m² | - |
| 1776983161 | 27.78° C | 37% | 1009.1 hPa | 0 mm | - | 181 W/m² | - |
| 1776982858 | 27.78° C | 42% | 1009.1 hPa | 0 mm | - | 186 W/m² | - |
| 1776982555 | 27.78° C | 37% | 1009.5 hPa | 0 mm | - | 212 W/m² | - |
| 1776982250 | 27.78° C | 37% | 1009.1 hPa | 0 mm | - | 223 W/m² | - |
| 1776981944 | 27.78° C | 38% | 1009.7 hPa | 0 mm | - | 242 W/m² | - |
| 1776981641 | 27.78° C | 40% | 1009.5 hPa | 0 mm | - | 255 W/m² | - |
| 1776981336 | 27.78° C | 40% | 1009.2 hPa | 0 mm | - | 270 W/m² | - |
| 1776981032 | 27.78° C | 38% | 1009.5 hPa | 0 mm | - | 285 W/m² | - |
| 1776980728 | 28.33° C | 37% | 1009.5 hPa | 0 mm | - | 297 W/m² | - |
| 1776980426 | 28.33° C | 39% | 1009.5 hPa | 0 mm | - | 301 W/m² | - |
| 1776980121 | 28.33° C | 40% | 1009.4 hPa | 0 mm | - | 323 W/m² | - |
| 1776979818 | 28.33° C | 36% | 1009.5 hPa | 0 mm | - | 346 W/m² | - |
| 1776979515 | 27.78° C | 38% | 1009.6 hPa | 0 mm | - | 360 W/m² | - |
| 1776979210 | 28.33° C | 36% | 1009.7 hPa | 0 mm | - | 361 W/m² | - |
| 1776978907 | 28.89° C | 36% | 1009.5 hPa | 0 mm | - | 387 W/m² | - |
* Rain latest hour (hover to see other rain measurements)
** Current wind speed in m/s (hover to see current wind gust speed)